Address 0x5dfff7fd59dfcf33bda323d8a0061eed975bea29

 

Overview

Balance:
0.000249474 BNB

BNB Value:
$0.09 (@ $348.54/BNB)

Token:
 
Txn Hash Method
Block
From
To
Value [Txn Fee]
0xe33fe32aefe6cc78b709a1d189477f9a581eea9b4fd972af956f451139f35173Approve109338832021-09-15 11:08:049 days 6 hrs ago0x5dfff7fd59dfcf33bda323d8a0061eed975bea29OUT 0x929b77bc478101c8fd0a13caa58381fe4242bdde0 BNB0.000310821
0x14fbd2a5f76cb55ca1fcab564a53bcb63d82624447d191f50c29e23a8c41b68eSwap Exact ETH F...106259562021-09-04 16:26:3020 days 1 hr ago0x5dfff7fd59dfcf33bda323d8a0061eed975bea29OUT PancakeSwap: Router v20.003 BNB0.000835975
0x8d3795662b85f9be9cb02fffa9d15f7dd10c29a301f400225c085ef2e6ee7a32Distribute Token...101965752021-08-20 14:47:3535 days 2 hrs ago0x5dfff7fd59dfcf33bda323d8a0061eed975bea29OUT 0xa60fb437b969c7e2d8c5927b9dcfe9a3cb597b5b0.004 BNB0.000701385
0x306ea957457b5545a48fad492bba8ba6605d28d8ea1bda0af5a6de76c994e119Swap Exact ETH F...100823022021-08-16 15:08:5739 days 2 hrs ago0x5dfff7fd59dfcf33bda323d8a0061eed975bea29OUT PancakeSwap: Router v20.002558432304548 BNB0.000902345
0x0cd1637cd52680903d936cab44dd0fa5dffb2a6b963af664f9b3e93b7f0a151bSwap Exact ETH F...100821932021-08-16 15:03:3039 days 2 hrs ago0x5dfff7fd59dfcf33bda323d8a0061eed975bea29OUT PancakeSwap: Router v20.001 BNB0.00054851
0x015c201001439fbe5193252d8ba1232b583c8dbb7de5bf49378fe3998cb112c0Swap Exact ETH F...100821752021-08-16 15:02:3639 days 2 hrs ago0x5dfff7fd59dfcf33bda323d8a0061eed975bea29OUT PancakeSwap: Router v20.001 BNB0.00060865
0xf9d5e7510d5e7d06cc6fcc5c1c32c38c758d867551f941558caf3621cf9f0097Get Airdrop100487342021-08-15 11:05:1040 days 6 hrs ago0x5dfff7fd59dfcf33bda323d8a0061eed975bea29OUT 0xb2c73ea3f0828ecbe68f1da4e9af153275a357860 BNB0.00023631
0x6d1201e45d9af2f82059220f8c61acde5ae4a3975b0d32d8a4e3d0184a866604Get Airdrop100487332021-08-15 11:05:0740 days 6 hrs ago0x5dfff7fd59dfcf33bda323d8a0061eed975bea29OUT 0xb2c73ea3f0828ecbe68f1da4e9af153275a357860 BNB0.00023631
0x11a89ed64dc5722f92f981a0de8216db97e92b2bd1456957ec696d0b5daf83beGet Airdrop100487312021-08-15 11:05:0140 days 6 hrs ago0x5dfff7fd59dfcf33bda323d8a0061eed975bea29OUT 0xb2c73ea3f0828ecbe68f1da4e9af153275a357860 BNB0.00023631
0x519b463cf0bdf874cfdf3b777375692b853ead98db8b92854e48fc318527144fGet Airdrop100487302021-08-15 11:04:5840 days 6 hrs ago0x5dfff7fd59dfcf33bda323d8a0061eed975bea29OUT 0xb2c73ea3f0828ecbe68f1da4e9af153275a357860 BNB0.00023631
0xb5bbac5998ad852887ddc4acbe2843ff3d8480512d1c601f928d4b05bafb276cGet Airdrop100487292021-08-15 11:04:5540 days 6 hrs ago0x5dfff7fd59dfcf33bda323d8a0061eed975bea29OUT 0xb2c73ea3f0828ecbe68f1da4e9af153275a357860 BNB0.00023631
0x5b4946d86fab28b4231e33ff0edd6999b325650fe4461341fe410d7585cd11b7Get Airdrop100487262021-08-15 11:04:4640 days 6 hrs ago0x5dfff7fd59dfcf33bda323d8a0061eed975bea29OUT 0xb2c73ea3f0828ecbe68f1da4e9af153275a357860 BNB0.00023631
0xa01dcf311d17e52e7853ff1dd21781abe0991100937a1124b32e7bde32e3acceGet Airdrop100487232021-08-15 11:04:3740 days 6 hrs ago0x5dfff7fd59dfcf33bda323d8a0061eed975bea29OUT 0xb2c73ea3f0828ecbe68f1da4e9af153275a357860 BNB0.00023631
0xc5f249956f478db4f04e60d8cc24146ff9d33999bed03a263185112be1ddb763Get Airdrop100486342021-08-15 11:00:1040 days 6 hrs ago0x5dfff7fd59dfcf33bda323d8a0061eed975bea29OUT 0x6e0e39125d5a20e380cf4eff2b912058243a97700 BNB0.000118895
0x301dce63f371bc73072690b3a94ae279fa053794d55b3a846470486c11f94159Swap ETH For Exa...100436272021-08-15 6:49:2640 days 10 hrs ago0x5dfff7fd59dfcf33bda323d8a0061eed975bea29OUT PancakeSwap: Router v20.00011340706053 BNB0.00471745
0xd503bac187a5abe925de721f50807c4a1685ea18a63f1e49336140b868ec0f0fSwap ETH For Exa...100433492021-08-15 6:35:3240 days 11 hrs ago0x5dfff7fd59dfcf33bda323d8a0061eed975bea29OUT PancakeSwap: Router v20.001240297838141 BNB0.00099741
0x43c1d7b3dcc8ab362b472adc6c976b38cb6132800bd77fa7447da15804a4ea13Swap Exact Token...100432772021-08-15 6:31:5640 days 11 hrs ago0x5dfff7fd59dfcf33bda323d8a0061eed975bea29OUT PancakeSwap: Router v20 BNB0.00138576
0x19be8d7adc0109f7a4c10bdfde3688dd483cd086b8c52a97573be16361fe4069Swap ETH For Exa...100431792021-08-15 6:27:0240 days 11 hrs ago0x5dfff7fd59dfcf33bda323d8a0061eed975bea29OUT PancakeSwap: Router v20.005666486321256 BNB0.00063577
0x4677935d4ff9df4e55c7a233a9576399653fe3f879c52e8dc02334c53b19f4b6Swap Exact ETH F...100206412021-08-14 11:34:4241 days 6 hrs ago0x5dfff7fd59dfcf33bda323d8a0061eed975bea29OUT PancakeSwap: Router v20.001 BNB0.000595895
0x3c339c138762d9e3338e0fdad2b2ae9d0c68892699dd66e82ea011e1b4607cd3Swap Exact ETH F...100190782021-08-14 10:15:5741 days 7 hrs ago0x5dfff7fd59dfcf33bda323d8a0061eed975bea29OUT PancakeSwap: Router v20.003 BNB0.00059839
0x96bd520d25199c853aa540581ff3916b97d5df499b77ed1109dee00e1c3c4629Swap Exact ETH F...100009692021-08-13 18:57:2941 days 22 hrs ago0x5dfff7fd59dfcf33bda323d8a0061eed975bea29OUT PancakeSwap: Router v20.001 BNB0.000676725
0x9fbf13011e331e22841e6130ac745063b0ad9968133ba8cb62d6a6890d42c073Airdrop100008442021-08-13 18:51:1441 days 22 hrs ago0x5dfff7fd59dfcf33bda323d8a0061eed975bea29OUT 0xa94f5a668845f5f19a7aebcb89006631cf269af90.002 BNB0.00031739
0x9213ee023bb5f84ca4745a93a4a37c46aab8ee8fb8e075ba85c33a3096af1c73Airdrop100008402021-08-13 18:51:0241 days 22 hrs ago0x5dfff7fd59dfcf33bda323d8a0061eed975bea29OUT 0xa94f5a668845f5f19a7aebcb89006631cf269af90.002 BNB0.00039239
0x26cb3a8056478e9dbd9ead5a402dbc1a5bdce9c8aa2aa1bfc9cf4691ae858b89Airdrop100006812021-08-13 18:43:0541 days 22 hrs ago0x5dfff7fd59dfcf33bda323d8a0061eed975bea29OUT Agrinoble AGN: AGN Token0.002 BNB0.00040112
0xcd4d3cebf5fc58c417eb9958160e0d5eae6adb2a9a535d72a817e82aea38e027Approve100005052021-08-13 18:34:1741 days 23 hrs ago0x5dfff7fd59dfcf33bda323d8a0061eed975bea29OUT BabyDogeCoin: BabyDoge Token0 BNB0.00022088
[ Download CSV Export 
Latest 6 internal transactions
Parent Txn Hash Block From To Value
0x301dce63f371bc73072690b3a94ae279fa053794d55b3a846470486c11f94159100436272021-08-15 6:49:2640 days 10 hrs ago PancakeSwap: Router v20x5dfff7fd59dfcf33bda323d8a0061eed975bea290.000000564214231494 BNB
0xd503bac187a5abe925de721f50807c4a1685ea18a63f1e49336140b868ec0f0f100433492021-08-15 6:35:3240 days 11 hrs ago PancakeSwap: Router v20x5dfff7fd59dfcf33bda323d8a0061eed975bea290.000006170636010655 BNB
0x19be8d7adc0109f7a4c10bdfde3688dd483cd086b8c52a97573be16361fe4069100431792021-08-15 6:27:0240 days 11 hrs ago PancakeSwap: Router v20x5dfff7fd59dfcf33bda323d8a0061eed975bea290.000028191474235107 BNB
0xa45e94137cdb7c00b40cf379d73e0f6ab69f4f3499d555e3be9f395773286cfb92437122021-07-17 19:11:4368 days 22 hrs ago PancakeSwap: Router v20x5dfff7fd59dfcf33bda323d8a0061eed975bea290.040593277872853203 BNB
0x7fbc4128eee0e1b3396b1966105088e3348d074dedb90368780f6fbeb2aef7a592420902021-07-17 17:50:3768 days 23 hrs ago PancakeSwap: Router v20x5dfff7fd59dfcf33bda323d8a0061eed975bea290.057638075676943823 BNB
0x264eae69fd07d73ef267bb40f8a2be6c5b54a3a4eb9d6081b1f44b83eb80715e80502622021-06-06 3:53:42110 days 13 hrs ago 0xcd035c0c9f68392b88ddc127f7aad39d5f39cee60x5dfff7fd59dfcf33bda323d8a0061eed975bea290.001 BNB
[ Download CSV Export 
Loading

Contract Name:
0 BNB

Compiler Version
0

Optimization Enabled:
0 BNB

Other Settings:
-NA-
Block Transaction Gas Used Reward
Age Block Fee Address BC Fee Address Voting Power Jailed Incoming
Block Uncle Number Difficulty Gas Used Reward
Loading
Loading
Make sure to use the "Vote Down" button for any spammy posts, and the "Vote Up" for interesting conversations.